TimeCDT,TemperatureF,Dew PointF,Humidity,Sea Level PressureIn,VisibilityMPH,Wind Direction,Wind SpeedMPH,Gust SpeedMPH,PrecipitationIn,Events,Conditions,WindDirDegrees,DateUTC
12:54 AM,69.1,55.9,63,29.83,10.0,South,5.8,-,N/A,,Overcast,170,2013-09-15 05:54:00
1:54 AM,68.0,57.9,70,29.83,10.0,South,5.8,-,N/A,,Overcast,170,2013-09-15 06:54:00
2:54 AM,66.0,59.0,78,29.82,10.0,South,4.6,-,N/A,,Mostly Cloudy,170,2013-09-15 07:54:00
3:54 AM,62.1,57.9,86,29.82,10.0,SSE,3.5,-,N/A,,Clear,160,2013-09-15 08:54:00
4:54 AM,62.1,57.9,86,29.83,10.0,WSW,3.5,-,N/A,,Scattered Clouds,240,2013-09-15 09:54:00
5:54 AM,64.0,59.0,84,29.86,10.0,West,6.9,-,N/A,,Partly Cloudy,260,2013-09-15 10:54:00
6:50 AM,66.2,60.8,83,29.92,10.0,WNW,12.7,18.4,N/A,,Mostly Cloudy,290,2013-09-15 11:50:00
6:54 AM,66.0,60.1,81,29.90,10.0,WNW,9.2,18.4,N/A,,Mostly Cloudy,290,2013-09-15 11:54:00
7:16 AM,64.4,60.8,88,29.93,10.0,NW,9.2,-,N/A,,Overcast,320,2013-09-15 12:16:00
7:54 AM,66.0,60.1,81,29.92,10.0,NW,11.5,-,N/A,,Overcast,310,2013-09-15 12:54:00
8:38 AM,64.4,60.8,88,29.94,9.0,NNW,11.5,-,0.06,Rain,Light Rain,330,2013-09-15 13:38:00
8:54 AM,64.0,61.0,90,29.92,10.0,NNW,11.5,-,0.06,,Mostly Cloudy,340,2013-09-15 13:54:00
9:54 AM,66.0,59.0,78,29.95,10.0,North,20.7,32.2,N/A,,Overcast,360,2013-09-15 14:54:00
10:54 AM,66.0,57.9,75,30.02,10.0,NNE,10.4,18.4,N/A,,Overcast,20,2013-09-15 15:54:00
11:54 AM,66.9,57.0,70,30.04,10.0,North,13.8,20.7,N/A,,Overcast,360,2013-09-15 16:54:00
12:54 PM,66.9,55.9,68,30.07,10.0,North,12.7,20.7,N/A,,Overcast,10,2013-09-15 17:54:00
1:54 PM,66.0,55.9,70,30.09,10.0,North,15.0,-,N/A,,Overcast,360,2013-09-15 18:54:00
2:54 PM,66.9,55.0,66,30.10,10.0,North,16.1,21.9,N/A,,Overcast,360,2013-09-15 19:54:00
3:54 PM,66.9,55.0,66,30.12,10.0,NNE,12.7,-,N/A,,Overcast,30,2013-09-15 20:54:00
4:19 PM,66.2,55.4,68,30.14,10.0,NNE,12.7,18.4,N/A,,Overcast,20,2013-09-15 21:19:00
4:54 PM,66.9,55.0,66,30.12,10.0,NNE,15.0,-,N/A,,Overcast,20,2013-09-15 21:54:00
5:54 PM,66.9,54.0,63,30.14,10.0,NE,15.0,-,N/A,,Mostly Cloudy,40,2013-09-15 22:54:00
6:54 PM,64.9,54.0,68,30.16,10.0,NNE,6.9,-,N/A,,Partly Cloudy,30,2013-09-15 23:54:00
7:54 PM,60.1,54.0,80,30.17,10.0,NNE,3.5,-,N/A,,Clear,30,2013-09-16 00:54:00
8:54 PM,62.1,55.0,78,30.20,10.0,NNE,5.8,-,N/A,,Overcast,30,2013-09-16 01:54:00
9:54 PM,62.1,55.9,80,30.22,10.0,North,4.6,-,N/A,,Overcast,10,2013-09-16 02:54:00
10:54 PM,63.0,55.0,75,30.23,10.0,NE,4.6,-,N/A,,Overcast,50,2013-09-16 03:54:00
11:54 PM,62.1,55.0,78,30.25,10.0,NE,4.6,-,N/A,,Overcast,50,2013-09-16 04:54:00